This demonstration page uses our WeatherBlox Daily Observations layout. Learn more.

Left ArrowRight Arrow

40.92945, -100.16068

Hourly Observations for November 9, 2019

Temp ( °F °C ) Dew Point ( °F °C ) Humidity (%) Winds ( mph kmh ) Pressure ( in mb ) Visibility ( mi km ) Precip ( " mm )
12:15 am 00:15 Clear 36 2.3 26 -3.1 68 68 WNW 10 17 30.17 1022 10 16.0934 0 0
12:35 am 00:35 Clear 35 1.6 26 -3.2 71 71 WNW 9 15 30.18 1022 10 16.0934 0 0
12:55 am 00:55 Clear 35 1.4 26 -3.5 70 70 WNW 8 13 30.18 1022 10 16.0934 0 0
1:15 am 01:15 Clear 35 1.9 26 -3.2 69 69 WNW 10 17 30.17 1022 10 16.0934 0 0
1:35 am 01:35 Clear 35 1.5 27 -3 72 72 WNW 9 15 30.18 1022 10 16.0934 0 0
1:55 am 01:55 Clear 33 0.8 27 -3 76 76 WNW 9 15 30.18 1022 10 16.0934 0 0
2:15 am 02:15 Clear 33 0.6 27 -3 77 77 WNW 8 13 30.17 1022 10 16.0934 0 0
2:35 am 02:35 Clear 32 0.1 26 -3.1 79 79 W 10 17 30.18 1022 10 16.0934 0 0
2:55 am 02:55 Clear 32 0 26 -3.1 80 80 WNW 8 13 30.18 1022 10 16.0934 0 0
3:15 am 03:15 Clear 32 0 27 -3 80 80 WNW 8 13 30.18 1022 10 16.0934 0 0
3:35 am 03:35 Clear 32 0 27 -3 80 80 WNW 9 15 30.17 1022 10 16.0934 0 0
3:55 am 03:55 Clear 31 -0.5 26 -3.1 83 83 WNW 7 11 30.17 1022 10 16.0934 0 0
4:15 am 04:15 Clear 32 0 27 -2.8 82 82 WNW 7 11 30.16 1021 10 16.0934 0 0
4:35 am 04:35 Clear 32 0 27 -2.6 83 83 WNW 10 17 30.16 1021 10 16.0934 0 0
4:55 am 04:55 Clear 32 0 28 -2.5 83 83 WNW 10 17 30.16 1021 10 16.0934 0 0
5:15 am 05:15 Clear 33 0.3 28 -2.3 83 83 WNW 8 13 30.15 1021 10 16.0934 0 0
5:35 am 05:35 Clear 31 -0.4 27 -2.8 84 84 WNW 7 11 30.16 1021 10 16.0934 0 0
5:55 am 05:55 Clear 30 -1 27 -3 86 86 WNW 6 9 30.17 1022 10 16.0934 0 0
6:15 am 06:15 Clear 31 -0.5 27 -2.7 85 85 WNW 6 9 30.16 1021 10 16.0934 0 0
6:35 am 06:35 Clear 30 -1.1 26 -3.1 86 86 WNW 6 9 30.17 1022 10 16.0934 0 0
6:55 am 06:55 Clear 29 -1.4 26 -3.2 88 88 WNW 6 9 30.17 1022 10 16.0934 0 0
7:15 am 07:15 Clear 30 -1.1 27 -3 87 87 WNW 8 13 30.16 1021 10 16.0934 0 0
7:35 am 07:35 Sunny 30 -1.1 26 -3.2 86 86 WNW 5 7 30.17 1022 10 16.0934 0 0
7:55 am 07:55 Sunny 32 -0.1 28 -2.4 85 85 WNW 7 11 30.15 1021 10 16.0934 0 0
8:15 am 08:15 Sunny 34 1.3 29 -1.5 82 82 WNW 7 11 30.13 1020 10 16.0934 0 0
8:35 am 08:35 Sunny 38 3.1 30 -0.9 75 75 WNW 8 13 30.13 1020 10 16.0934 0 0
8:55 am 08:55 Sunny 40 4.5 32 -0.2 72 72 WNW 7 11 30.1 1019 10 16.0934 0 0
9:15 am 09:15 Sunny 43 6.2 33 0.3 66 66 WNW 6 9 30.09 1019 10 16.0934 0 0
9:35 am 09:35 Sunny 46 8 33 0.4 59 59 WNW 6 9 30.07 1018 10 16.0934 0 0
9:55 am 09:55 Sunny 48 9 33 0.4 55 55 W 6 9 30.05 1018 10 16.0934 0 0
10:15 am 10:15 Sunny 52 10.9 33 0.5 49 49 W 7 11 30.03 1017 10 16.0934 0 0
10:35 am 10:35 Sunny 56 13.1 33 0.4 42 42 WSW 5 7 30 1016 10 16.0934 0 0
10:55 am 10:55 Sunny 60 15.5 32 0.2 35 35 W 6 9 29.97 1015 10 16.0934 0 0
11:15 am 11:15 Sunny 64 17.6 32 0.1 31 31 W 8 13 29.94 1014 10 16.0934 0 0
11:35 am 11:35 Sunny 68 20 31 -0.4 26 26 WSW 8 13 29.9 1013 10 16.0934 0 0
11:55 am 11:55 Sunny 71 21.7 31 -0.7 22 22 WSW 15 24 29.88 1012 10 16.0934 0 0
12:15 pm 12:15 Sunny 71 21.9 31 -0.6 22 22 WSW 15 24 29.87 1011 10 16.0934 0 0
12:35 pm 12:35 Sunny 72 22.1 31 -0.6 22 22 WSW 14 22 29.85 1011 10 16.0934 0 0
12:55 pm 12:55 Sunny 74 23.2 30 -1 20 20 WSW 18 30 29.83 1010 10 16.0934 0 0
1:15 pm 13:15 Sunny 73 22.9 30 -1.1 20 20 SW 18 30 29.82 1010 10 16.0934 0 0
1:35 pm 13:35 Sunny 74 23.2 30 -1.3 20 20 WSW 20 31 29.81 1009 10 16.0934 0 0
1:55 pm 13:55 Sunny 74 23.3 30 -1 20 20 SW 18 30 29.79 1009 10 16.0934 0 0
2:15 pm 14:15 Sunny 75 24.1 29 -1.6 18 18 WSW 17 28 29.78 1008 10 16.0934 0 0
2:35 pm 14:35 Sunny 76 24.3 30 -1 19 19 WSW 22 35 29.78 1008 10 16.0934 0 0
2:55 pm 14:55 Sunny 75 24.1 31 -0.6 20 20 SW 22 35 29.78 1008 10 16.0934 0 0
3:15 pm 15:15 Sunny 75 24 31 -0.6 20 20 WSW 15 24 29.78 1008 10 16.0934 0 0
3:35 pm 15:35 Sunny 76 24.2 31 -0.5 20 20 WSW 14 22 29.77 1008 10 16.0934 0 0
3:55 pm 15:55 Sunny 76 24.5 31 -0.6 19 19 WSW 12 19 29.75 1008 10 16.0934 0 0
4:15 pm 16:15 Sunny 75 24.1 31 -0.3 20 20 WSW 8 13 29.76 1008 10 16.0934 0 0
4:35 pm 16:35 Sunny 75 23.7 30 -1 19 19 WSW 10 17 29.75 1007 10 16.0934 0 0
4:55 pm 16:55 Sunny 71 21.4 32 -0.2 24 24 WNW 10 17 29.78 1008 10 16.0934 0 0
5:15 pm 17:15 Sunny 69 20.3 28 -2.3 22 22 WNW 10 17 29.8 1009 10 16.0934 0 0
5:35 pm 17:35 Clear 62 16.4 27 -2.8 27 27 WNW 7 11 29.83 1010 10 16.0934 0 0
5:55 pm 17:55 Clear 55 13 28 -2.1 35 35 WNW 8 13 29.86 1011 10 16.0934 0 0
6:15 pm 18:15 Clear 51 10.5 28 -2.4 41 41 NW 8 13 29.9 1012 10 16.0934 0 0
6:35 pm 18:35 Clear 50 10.2 26 -3.6 38 38 NW 9 15 29.9 1013 10 16.0934 0 0
6:55 pm 18:55 Clear 50 9.9 27 -2.7 41 41 NW 9 15 29.91 1013 10 16.0934 0 0
7:15 pm 19:15 Clear 46 7.6 27 -2.6 49 49 NW 9 15 29.94 1014 10 16.0934 0 0
7:35 pm 19:35 Clear 48 8.9 26 -3.2 43 43 N 8 13 29.93 1014 10 16.0934 0 0
7:55 pm 19:55 Clear 47 8.1 26 -3.5 44 44 N 3 6 29.95 1014 10 16.0934 0 0
8:15 pm 20:15 Clear 48 9 27 -3 43 43 N 6 9 29.95 1014 10 16.0934 0 0
8:35 pm 20:35 Clear 46 7.5 27 -3 48 48 N 10 17 29.96 1015 10 16.0934 0 0
8:55 pm 20:55 Clear 48 8.8 28 -2.1 47 47 N 5 7 29.96 1015 10 16.0934 0 0
9:15 pm 21:15 Clear 46 8 28 -2.5 48 48 N 7 11 29.98 1015 10 16.0934 0 0
9:35 pm 21:35 Clear 49 9.3 28 -2.1 45 45 N 7 11 29.98 1015 10 16.0934 0 0
9:55 pm 21:55 Clear 42 5.3 27 -2.8 56 56 W 9 15 30.03 1017 10 16.0934 0 0
10:15 pm 22:15 Clear 42 5.5 28 -2.3 58 58 W 9 15 30.03 1017 10 16.0934 0 0
10:35 pm 22:35 Clear 40 4.6 28 -2.3 61 61 W 7 11 30.04 1017 10 16.0934 0 0
10:55 pm 22:55 Clear 38 3.5 27 -3 63 63 W 9 15 30.05 1018 10 16.0934 0 0
11:15 pm 23:15 Clear 37 2.5 26 -3.4 65 65 WSW 6 9 30.06 1018 10 16.0934 0 0
11:35 pm 23:35 Clear 37 3 26 -3.1 65 65 W 7 11 30.05 1018 10 16.0934 0 0
11:55 pm 23:55 Clear 37 2.7 27 -3 66 66 W 8 13 30.06 1018 10 16.0934 0 0

Powered by AerisWeather